Weather History for Hawthorne, CA

Change the Weather History Date:

Monday, February 25, 2013

  Actual Average Record
Temperature  
Mean Temperature 57 °F -  
Max Temperature 66 °F 67 °F 84 °F (1989)
Min Temperature 48 °F 50 °F 39 °F (1945)
Degree Days  
Heating Degree Days 8    
Growing Degree Days 7 (Base 50)    
Moisture  
Dew Point 32 °F    
Average Humidity 46    
Maximum Humidity 80    
Minimum Humidity 16    
Precipitation  
Precipitation 0.00 in - - ()
Sea Level Pressure  
Sea Level Pressure 30.16 in    
Wind  
Wind Speed 2 mph (WSW)    
Max Wind Speed 15 mph    
Max Gust Speed -    
Visibility 10 miles    
Events      
Averages and records for this station are not official NWS values.
T = Trace of Precipitation, MM = Missing Value Source: NWS Daily Summary

Daily Weather History Graph

Daily Weather History Graph

Search for Another Location

Airport:

Trip Planner

Search our weather history database for the weather conditions in past years. The results will help you decide how hot, cold, wet, or windy it might be!

Date:

Astronomy

Feb. 25, 2013 Rise Set
Actual Time 6:26 AM PST 5:46 PM PST
Civil Twilight 6:01 AM PST 6:11 PM PST
Nautical Twilight 5:32 AM PST 6:40 PM PST
Astronomical Twilight 5:03 AM PST 7:09 PM PST
Moon 6:01 PM PST 6:01 AM PST
Length of Visible Light 12h 10m
Length of Day
11h 20m
Full, 100% of the Moon is Illuminated
Feb 25
Full
Feb 25
Full
Mar 4
Last Quarter
Mar 11
New
Mar 19
First Quarter

Hourly Weather History & Observations

Time (PST) Temp. Dew Point Humidity Pressure Visibility Wind Dir Wind Speed Gust Speed Precip Events Conditions
12:53 AM 50.0 °F 34.0 °F 54% 30.22 in 10.0 mi Calm Calm - N/A   Clear
1:53 AM 48.9 °F 30.0 °F 48% 30.22 in 10.0 mi Calm Calm - N/A   Clear
2:53 AM 48.9 °F 27.0 °F 43% 30.20 in 10.0 mi Calm Calm - N/A   Clear
3:53 AM 48.0 °F 26.1 °F 42% 30.20 in 10.0 mi Calm Calm - N/A   Clear
4:53 AM 48.0 °F 25.0 °F 41% 30.21 in 10.0 mi Calm Calm - N/A   Clear
5:53 AM 48.0 °F 24.1 °F 39% 30.21 in 10.0 mi Calm Calm - N/A   Clear
6:53 AM 48.0 °F 24.1 °F 39% 30.22 in 10.0 mi Calm Calm - N/A   Clear
7:53 AM 53.1 °F 23.0 °F 31% 30.23 in 10.0 mi Calm Calm - N/A   Clear
8:53 AM 57.0 °F 19.9 °F 24% 30.22 in 10.0 mi Calm Calm - N/A   Clear
9:53 AM 61.0 °F 15.1 °F 17% 30.21 in 10.0 mi Calm Calm - N/A   Clear
10:53 AM 63.0 °F 17.1 °F 17% 30.20 in 10.0 mi Calm Calm - N/A   Clear
11:53 AM 66.0 °F 21.9 °F 19% 30.17 in 10.0 mi WSW 8.1 mph - N/A   Clear
12:53 PM 66.9 °F 19.0 °F 16% 30.15 in 10.0 mi West 5.8 mph - N/A   Clear
1:53 PM 64.9 °F 25.0 °F 22% 30.13 in 10.0 mi West 12.7 mph - N/A   Clear
2:53 PM 63.0 °F 39.0 °F 41% 30.13 in 10.0 mi West 15.0 mph - N/A   Clear
3:53 PM 61.0 °F 44.1 °F 54% 30.11 in 10.0 mi WSW 13.8 mph - N/A   Clear
4:53 PM 60.1 °F 45.0 °F 57% 30.10 in 10.0 mi West 8.1 mph - N/A   Clear
5:53 PM 57.0 °F 44.1 °F 62% 30.08 in 10.0 mi WSW 5.8 mph - N/A   Clear
6:53 PM 55.9 °F 45.0 °F 67% 30.09 in 10.0 mi WSW 5.8 mph - N/A   Clear
7:53 PM 55.9 °F 45.0 °F 67% 30.11 in 10.0 mi WSW 3.5 mph - N/A   Clear
8:53 PM 54.0 °F 46.0 °F 75% 30.10 in 10.0 mi Calm Calm - N/A   Clear
9:53 PM 53.1 °F 46.0 °F 77% 30.12 in 10.0 mi Calm Calm - N/A   Clear
10:53 PM 53.1 °F 46.0 °F 77% 30.11 in 10.0 mi Calm Calm - N/A   Clear
11:53 PM 51.1 °F 45.0 °F 80% 30.09 in 10.0 mi Calm Calm - N/A   Clear